Location: Larrial
(48.2758°N, 4.5331°W)
Time: 01:23:46
(UTC+00:00)

XW-2F - Pass Details

Date: 05 December 2021
Orbit: 495 x 515 km, 97.5° (Epoch: 16 January)

Event Time Altitude Azimuth Distance (km) Brightness Sun altitude
Rises 17:28:50 0° 163° (SSE) 2,602 ? -10.3°
Reaches altitude 10° 17:30:54 10° 163° (SSE) 1,725 ? -10.6°
Maximum altitude 17:34:37 82° 78° (ENE) 524 ? -11.1°
Drops below altitude 10° 17:38:24 10° 349° (N) 1,752 ? -11.7°
Sets 17:40:31 0° 348° (NNW) 2,647 ? -12.1°
